| time (UTC) | temp F | wind direction | speed MPH | gust MPH | rain 1hr in | rain 24hr in | rain mn in | humidity % | barometer mb |
| 20260905211559 | 69 | 313 | 1.0 | 0.0 | 0.00 | 0.00 | 0.00 | 50 | 1012.1 |
| 20260905210051 | 68 | 313 | 1.0 | 0.0 | 0.00 | 0.00 | 0.00 | 50 | 1012.2 |
| 20260905204537 | 68 | 340 | 1.0 | 0.0 | 0.00 | 0.00 | 0.00 | 50 | 1012.1 |
| 20260905203029 | 68 | 338 | 1.0 | 0.0 | 0.00 | 0.00 | 0.00 | 50 | 1012.1 |
| 20260905201532 | 68 | 344 | 0.0 | 0.0 | 0.00 | 0.00 | 0.00 | 51 | 1012.0 |
| 20260905200022 | 68 | 355 | 1.0 | 0.0 | 0.00 | 0.00 | 0.00 | 53 | 1011.9 |
| 20260905194518 | 69 | 355 | 1.0 | 0.0 | 0.00 | 0.00 | 0.00 | 54 | 1011.9 |
| 20260905193014 | 69 | 12 | 1.0 | 0.0 | 0.00 | 0.00 | 0.00 | 54 | 1011.9 |
| 20260905191510 | 69 | 360 | 3.0 | 0.0 | 0.00 | 0.00 | 0.00 | 55 | 1011.8 |
| 20260905190007 | 70 | 16 | 2.0 | 0.0 | 0.00 | 0.00 | 0.00 | 54 | 1011.7 |
| 20260905184502 | 69 | 27 | 2.0 | 0.0 | 0.00 | 0.00 | 0.00 | 54 | 1011.5 |
| 20260905183059 | 69 | 46 | 2.0 | 0.0 | 0.00 | 0.00 | 0.00 | 54 | 1011.8 |
| 20260905181555 | 70 | 19 | 2.0 | 0.0 | 0.00 | 0.00 | 0.00 | 53 | 1011.8 |
| 20260905180100 | 70 | 24 | 2.0 | 0.0 | 0.00 | 0.00 | 0.00 | 53 | 1011.7 |
| 20260905174553 | 70 | 26 | 2.0 | 0.0 | 0.00 | 0.00 | 0.00 | 53 | 1011.7 |
| 20260905173057 | 69 | 27 | 1.0 | 0.0 | 0.00 | 0.00 | 0.00 | 53 | 1011.7 |
| 20260905171540 | 70 | 310 | 1.0 | 0.0 | 0.00 | 0.00 | 0.00 | 51 | 1011.8 |
| 20260905170035 | 68 | 39 | 2.0 | 0.0 | 0.00 | 0.00 | 0.00 | 51 | 1011.9 |
| 20260905164531 | 69 | 57 | 1.0 | 0.0 | 0.00 | 0.00 | 0.00 | 51 | 1012.0 |
| 20260905163026 | 68 | 346 | 2.0 | 0.0 | 0.00 | 0.00 | 0.00 | 50 | 1012.0 |
| 20260905161522 | 67 | 14 | 2.0 | 0.0 | 0.00 | 0.00 | 0.00 | 50 | 1012.0 |
| 20260905160021 | 67 | 15 | 0.0 | 0.0 | 0.00 | 0.00 | 0.00 | 48 | 1012.0 |
| 20260905154517 | 66 | 15 | 0.0 | 0.0 | 0.00 | 0.00 | 0.00 | 48 | 1012.0 |
| 20260905153012 | 66 | 15 | 1.0 | 0.0 | 0.00 | 0.00 | 0.00 | 46 | 1012.1 |
| 20260905151508 | 65 | 20 | 2.0 | 0.0 | 0.00 | 0.00 | 0.00 | 46 | 1012.3 |
| 20260905150003 | 66 | 355 | 9.0 | 0.0 | 0.00 | 0.00 | 0.00 | 46 | 1012.3 |
| 20260905144601 | 0 | 0.0 | 0.0 | 0.00 | 0.00 | 0.00 | 1012.1 | ||
| 20260905143055 | 0 | 0.0 | 0.0 | 0.00 | 0.00 | 0.00 | 1012.1 | ||
| 20260905141551 | 0 | 0.0 | 0.0 | 0.00 | 0.00 | 0.00 | 1011.9 | ||
| 20260905140050 | 0 | 0.0 | 0.0 | 0.00 | 0.00 | 0.00 | 1011.9 | ||
| 20260905134556 | 0 | 0.0 | 0.0 | 0.00 | 0.00 | 0.00 | 1011.9 | ||
| 20260905133044 | 0 | 0.0 | 0.0 | 0.00 | 0.00 | 0.00 | 1012.2 | ||
| 20260905131536 | 0 | 0.0 | 0.0 | 0.00 | 0.00 | 0.00 | 1012.3 | ||
| 20260905130031 | 0 | 0.0 | 0.0 | 0.00 | 0.00 | 0.00 | 1012.5 | ||
| 20260905124535 | 0 | 0.0 | 0.0 | 0.00 | 0.00 | 0.00 | 1012.7 | ||
| 20260905123022 | 0 | 0.0 | 0.0 | 0.00 | 0.00 | 0.00 | 1012.7 | ||
| 20260905121519 | 0 | 0.0 | 0.0 | 0.00 | 0.00 | 0.00 | 1012.7 | ||
| 20260905120016 | 0 | 0.0 | 0.0 | 0.00 | 0.00 | 0.00 | 1012.2 | ||
| 20260905114511 | 0 | 0.0 | 0.0 | 0.00 | 0.00 | 0.00 | 1012.1 | ||
| 20260905113007 | 0 | 0.0 | 0.0 | 0.00 | 0.00 | 0.00 | 1012.1 | ||
| 20260905111506 | 0 | 0.0 | 0.0 | 0.00 | 0.00 | 0.00 | 1012.0 | ||
| 20260905110111 | 0 | 0.0 | 0.0 | 0.00 | 0.00 | 0.00 | 1011.9 | ||
| 20260905104556 | 57 | 325 | 0.0 | 0.0 | 0.00 | 0.00 | 0.00 | 100 | 1011.8 |
| 20260905103052 | 57 | 325 | 0.0 | 0.0 | 0.00 | 0.00 | 0.00 | 100 | 1011.6 |
| 20260905101601 | 57 | 325 | 0.0 | 0.0 | 0.00 | 0.00 | 0.00 | 100 | 1011.4 |
| 20260905100043 | 57 | 325 | 0.0 | 0.0 | 0.00 | 0.00 | 0.00 | 100 | 1011.4 |
| 20260905094539 | 57 | 325 | 0.0 | 0.0 | 0.00 | 0.00 | 0.00 | 100 | 1011.4 |
| 20260905093035 | 57 | 325 | 0.0 | 0.0 | 0.00 | 0.00 | 0.00 | 100 | 1011.4 |
| 20260905091530 | 57 | 325 | 0.0 | 0.0 | 0.00 | 0.00 | 0.00 | 100 | 1011.4 |
| 20260905090031 | 57 | 325 | 0.0 | 0.0 | 0.00 | 0.00 | 0.00 | 100 | 1011.4 |
| 20260905084523 | 56 | 325 | 0.0 | 0.0 | 0.00 | 0.00 | 0.00 | 100 | 1011.4 |
| 20260905083021 | 56 | 325 | 0.0 | 0.0 | 0.00 | 0.00 | 0.00 | 100 | 1011.5 |
| 20260905081515 | 56 | 325 | 0.0 | 0.0 | 0.00 | 0.00 | 0.00 | 100 | 1011.6 |
| 20260905080014 | 56 | 325 | 0.0 | 0.0 | 0.00 | 0.00 | 0.00 | 100 | 1011.6 |
| 20260905074513 | 55 | 325 | 0.0 | 0.0 | 0.00 | 0.00 | 0.00 | 100 | 1011.7 |
| 20260905073005 | 55 | 325 | 0.0 | 0.0 | 0.00 | 0.00 | 0.00 | 100 | 1011.7 |
| 20260905071503 | 55 | 325 | 0.0 | 0.0 | 0.00 | 0.00 | 0.00 | 100 | 1011.8 |
| 20260905070111 | 55 | 325 | 0.0 | 0.0 | 0.00 | 0.00 | 0.00 | 100 | 1011.9 |
| 20260905064552 | 55 | 325 | 0.0 | 0.0 | 0.00 | 0.00 | 0.00 | 100 | 1012.0 |
| 20260905063056 | 55 | 325 | 0.0 | 0.0 | 0.00 | 0.00 | 0.00 | 100 | 1012.1 |
| 20260905061544 | 54 | 325 | 0.0 | 0.0 | 0.00 | 0.00 | 0.00 | 100 | 1012.1 |
| 20260905060040 | 54 | 325 | 0.0 | 0.0 | 0.00 | 0.00 | 0.00 | 100 | 1012.2 |
| 20260905054547 | 54 | 325 | 0.0 | 0.0 | 0.00 | 0.00 | 0.00 | 100 | 1012.3 |
| 20260905053032 | 54 | 325 | 0.0 | 0.0 | 0.00 | 0.00 | 0.00 | 100 | 1012.3 |
| 20260905051527 | 54 | 325 | 0.0 | 0.0 | 0.00 | 0.00 | 0.00 | 100 | 1012.4 |
| 20260905050026 | 54 | 325 | 0.0 | 0.0 | 0.00 | 0.00 | 0.00 | 100 | 1012.6 |
| 20260905044522 | 55 | 325 | 0.0 | 0.0 | 0.00 | 0.00 | 0.00 | 100 | 1012.7 |
| 20260905043021 | 55 | 325 | 0.0 | 0.0 | 0.00 | 0.00 | 0.00 | 100 | 1012.7 |
| 20260905041513 | 55 | 325 | 0.0 | 0.0 | 0.00 | 0.00 | 0.00 | 100 | 1012.7 |
| 20260905040013 | 55 | 325 | 0.0 | 0.0 | 0.00 | 0.00 | 0.00 | 100 | 1012.6 |
| 20260905034506 | 55 | 325 | 0.0 | 0.0 | 0.00 | 0.00 | 0.01 | 100 | 1012.6 |
| 20260905033002 | 56 | 325 | 0.0 | 0.0 | 0.00 | 0.00 | 0.01 | 100 | 1012.7 |
| 20260905031605 | 56 | 325 | 0.0 | 0.0 | 0.00 | 0.00 | 0.01 | 100 | 1012.5 |
| 20260905030101 | 56 | 325 | 0.0 | 0.0 | 0.00 | 0.00 | 0.01 | 100 | 1012.4 |
| 20260905024600 | 57 | 325 | 0.0 | 0.0 | 0.00 | 0.00 | 0.01 | 100 | 1012.4 |
| 20260905023048 | 57 | 325 | 0.0 | 0.0 | 0.00 | 0.00 | 0.01 | 100 | 1012.6 |
| 20260905021544 | 57 | 325 | 0.0 | 0.0 | 0.00 | 0.00 | 0.01 | 100 | 1012.4 |
| 20260905020038 | 58 | 325 | 0.0 | 0.0 | 0.00 | 0.00 | 0.01 | 100 | 1012.5 |
| 20260905014534 | 58 | 325 | 0.0 | 0.0 | 0.00 | 0.00 | 0.01 | 100 | 1012.7 |
| 20260905013032 | 59 | 325 | 0.0 | 0.0 | 0.00 | 0.00 | 0.01 | 100 | 1012.6 |
| 20260905011525 | 59 | 325 | 0.0 | 0.0 | 0.00 | 0.00 | 0.01 | 100 | 1012.4 |
| 20260905010026 | 60 | 325 | 0.0 | 0.0 | 0.00 | 0.00 | 0.01 | 1 | 1012.5 |
| 20260905004520 | 61 | 325 | 0.0 | 0.0 | 0.00 | 0.00 | 0.01 | 11 | 1012.7 |
| 20260905003015 | 63 | 325 | 0.0 | 0.0 | 0.00 | 0.00 | 0.01 | 20 | 1012.6 |
| 20260905001511 | 64 | 325 | 0.0 | 0.0 | 0.00 | 0.00 | 0.01 | 31 | 1012.2 |
| 20260905000007 | 65 | 325 | 0.0 | 0.0 | 0.00 | 0.00 | 0.01 | 42 | 1012.1 |
| 20260904234503 | 67 | 325 | 0.0 | 0.0 | 0.00 | 0.00 | 0.01 | 51 | 1011.9 |
| 20260904233059 | 68 | 325 | 0.0 | 0.0 | 0.00 | 0.00 | 0.01 | 56 | 1011.9 |
| 20260904231555 | 69 | 325 | 0.0 | 0.0 | 0.00 | 0.00 | 0.01 | 58 | 1011.7 |
| 20260904230117 | 70 | 324 | 0.0 | 0.0 | 0.00 | 0.00 | 0.01 | 57 | 1011.6 |
| 20260904224548 | 71 | 323 | 0.0 | 0.0 | 0.00 | 0.00 | 0.01 | 57 | 1011.7 |
| 20260904223044 | 71 | 323 | 1.0 | 0.0 | 0.00 | 0.00 | 0.01 | 58 | 1011.5 |
| 20260904221539 | 71 | 328 | 1.0 | 0.0 | 0.00 | 0.00 | 0.01 | 57 | 1011.4 |
| 20260904220035 | 72 | 339 | 1.0 | 0.0 | 0.00 | 0.00 | 0.01 | 56 | 1011.2 |
| 20260904214531 | 73 | 302 | 2.0 | 0.0 | 0.00 | 0.00 | 0.01 | 55 | 1011.2 |
| 20260904213027 | 73 | 296 | 1.0 | 0.0 | 0.00 | 0.00 | 0.01 | 55 | 1011.2 |